| time (UTC) | temp F | wind direction | speed MPH | gust MPH | rain 1hr in | rain 24hr in | rain mn in | humidity % | barometer mb |
| 20260507051545 | 60 | 65 | 2.0 | 10.0 | 0.02 | 0.11 | 0.02 | 89 | 1002.9 |
| 20260507051042 | 61 | 6 | 4.0 | 10.0 | 0.02 | 0.11 | 0.02 | 88 | 1003.0 |
| 20260507050540 | 61 | 64 | 0.0 | 9.0 | 0.02 | 0.11 | 0.02 | 88 | 1003.1 |
| 20260507050043 | 62 | 345 | 0.0 | 8.0 | 0.02 | 0.11 | 0.02 | 89 | 1003.0 |
| 20260507045540 | 62 | 68 | 2.0 | 10.0 | 0.02 | 0.11 | 0.02 | 88 | 1003.0 |
| 20260507045035 | 63 | 14 | 2.0 | 6.0 | 0.02 | 0.11 | 0.02 | 88 | 1002.8 |
| 20260507044536 | 63 | 74 | 4.0 | 11.0 | 0.01 | 0.10 | 0.01 | 88 | 1002.4 |
| 20260507044035 | 64 | 51 | 3.0 | 11.0 | 0.01 | 0.10 | 0.01 | 87 | 1002.4 |
| 20260507043533 | 64 | 290 | 3.0 | 7.0 | 0.01 | 0.10 | 0.01 | 88 | 1002.8 |
| 20260507043035 | 65 | 294 | 1.0 | 3.0 | 0.00 | 0.09 | 0.00 | 88 | 1002.7 |
| 20260507042533 | 65 | 55 | 0.0 | 3.0 | 0.00 | 0.09 | 0.00 | 87 | 1002.3 |
| 20260507042030 | 65 | 259 | 0.0 | 1.0 | 0.00 | 0.09 | 0.00 | 87 | 1002.3 |
| 20260507041530 | 65 | 350 | 0.0 | 3.0 | 0.00 | 0.09 | 0.00 | 87 | 1002.0 |
| 20260507041029 | 65 | 348 | 0.0 | 3.0 | 0.00 | 0.09 | 0.00 | 87 | 1002.1 |
| 20260507040527 | 65 | 356 | 0.0 | 1.0 | 0.00 | 0.09 | 0.00 | 86 | 1002.3 |
| 20260507040029 | 65 | 274 | 0.0 | 2.0 | 0.00 | 0.09 | 0.00 | 86 | 1002.4 |
| 20260507035527 | 65 | 273 | 0.0 | 2.0 | 0.00 | 0.09 | 0.09 | 86 | 1002.2 |
| 20260507035027 | 65 | 245 | 0.0 | 0.0 | 0.00 | 0.09 | 0.09 | 86 | 1002.1 |
| 20260507034535 | 65 | 245 | 0.0 | 0.0 | 0.00 | 0.09 | 0.09 | 85 | 1002.1 |
| 20260507034026 | 65 | 245 | 0.0 | 0.0 | 0.00 | 0.09 | 0.09 | 85 | 1002.0 |
| 20260507033526 | 66 | 245 | 0.0 | 0.0 | 0.00 | 0.09 | 0.09 | 85 | 1001.8 |
| 20260507033038 | 66 | 245 | 0.0 | 0.0 | 0.00 | 0.09 | 0.09 | 85 | 1001.7 |
| 20260507032526 | 66 | 245 | 0.0 | 0.0 | 0.00 | 0.09 | 0.09 | 84 | 1001.7 |
| 20260507032026 | 66 | 245 | 0.0 | 0.0 | 0.00 | 0.09 | 0.09 | 84 | 1001.8 |
| 20260507031525 | 66 | 246 | 0.0 | 0.0 | 0.00 | 0.09 | 0.09 | 85 | 1002.0 |
| 20260507031026 | 66 | 246 | 0.0 | 1.0 | 0.00 | 0.09 | 0.09 | 85 | 1002.3 |
| 20260507030525 | 66 | 237 | 0.0 | 2.0 | 0.00 | 0.09 | 0.09 | 85 | 1002.2 |
| 20260507030027 | 66 | 298 | 0.0 | 2.0 | 0.00 | 0.09 | 0.09 | 85 | 1002.1 |
| 20260507025524 | 65 | 257 | 0.0 | 1.0 | 0.00 | 0.09 | 0.09 | 85 | 1001.8 |
| 20260507025025 | 65 | 257 | 0.0 | 1.0 | 0.00 | 0.09 | 0.09 | 85 | 1001.9 |
| 20260507024524 | 65 | 257 | 0.0 | 1.0 | 0.00 | 0.09 | 0.09 | 85 | 1001.9 |
| 20260507024027 | 66 | 255 | 0.0 | 1.0 | 0.00 | 0.09 | 0.09 | 84 | 1001.9 |
| 20260507023524 | 66 | 223 | 0.0 | 1.0 | 0.00 | 0.09 | 0.09 | 84 | 1001.7 |
| 20260507023027 | 66 | 175 | 0.0 | 0.0 | 0.00 | 0.09 | 0.09 | 84 | 1001.3 |
| 20260507022524 | 66 | 175 | 0.0 | 1.0 | 0.00 | 0.09 | 0.09 | 83 | 1001.2 |
| 20260507022024 | 66 | 174 | 0.0 | 1.0 | 0.00 | 0.09 | 0.09 | 83 | 1001.3 |
| 20260507021523 | 66 | 189 | 0.0 | 2.0 | 0.00 | 0.09 | 0.09 | 84 | 1001.2 |
| 20260507021026 | 66 | 176 | 0.0 | 2.0 | 0.00 | 0.09 | 0.09 | 84 | 1001.3 |
| 20260507020523 | 66 | 228 | 0.0 | 2.0 | 0.00 | 0.09 | 0.09 | 84 | 1001.5 |
| 20260507020024 | 66 | 234 | 0.0 | 1.0 | 0.00 | 0.09 | 0.09 | 84 | 1001.7 |
| 20260507015523 | 66 | 212 | 0.0 | 1.0 | 0.00 | 0.09 | 0.09 | 84 | 1001.6 |
| 20260507015024 | 65 | 243 | 0.0 | 1.0 | 0.00 | 0.09 | 0.09 | 84 | 1001.7 |
| 20260507014523 | 66 | 243 | 0.0 | 1.0 | 0.00 | 0.09 | 0.09 | 83 | 1001.8 |
| 20260507014023 | 66 | 243 | 0.0 | 1.0 | 0.00 | 0.09 | 0.09 | 83 | 1001.6 |
| 20260507013522 | 66 | 243 | 0.0 | 1.0 | 0.00 | 0.09 | 0.09 | 83 | 1001.9 |
| 20260507013022 | 66 | 237 | 0.0 | 3.0 | 0.00 | 0.09 | 0.09 | 83 | 1002.0 |
| 20260507012522 | 66 | 233 | 0.0 | 3.0 | 0.00 | 0.09 | 0.09 | 83 | 1001.9 |
| 20260507012022 | 66 | 232 | 0.0 | 1.0 | 0.00 | 0.09 | 0.09 | 82 | 1002.0 |
| 20260507011522 | 67 | 232 | 0.0 | 1.0 | 0.00 | 0.09 | 0.09 | 82 | 1001.9 |
| 20260507011021 | 67 | 232 | 0.0 | 1.0 | 0.00 | 0.09 | 0.09 | 82 | 1001.6 |
| 20260507010521 | 67 | 232 | 0.0 | 2.0 | 0.00 | 0.09 | 0.09 | 81 | 1001.4 |
| 20260507010025 | 67 | 224 | 0.0 | 4.0 | 0.00 | 0.09 | 0.09 | 81 | 1001.6 |
| 20260507005522 | 67 | 233 | 1.0 | 5.0 | 0.00 | 0.09 | 0.09 | 81 | 1001.5 |
| 20260507005020 | 67 | 237 | 1.0 | 5.0 | 0.00 | 0.09 | 0.09 | 81 | 1001.5 |
| 20260507004527 | 68 | 218 | 2.0 | 4.0 | 0.00 | 0.09 | 0.09 | 81 | 1001.4 |
| 20260507004021 | 68 | 202 | 0.0 | 4.0 | 0.00 | 0.09 | 0.09 | 80 | 1001.3 |
| 20260507003521 | 68 | 203 | 1.0 | 5.0 | 0.00 | 0.09 | 0.09 | 80 | 1001.4 |
| 20260507003021 | 68 | 237 | 1.0 | 5.0 | 0.00 | 0.09 | 0.09 | 80 | 1001.4 |
| 20260507002520 | 68 | 224 | 2.0 | 5.0 | 0.00 | 0.09 | 0.09 | 80 | 1001.4 |
| 20260507002023 | 68 | 206 | 0.0 | 6.0 | 0.00 | 0.09 | 0.09 | 80 | 1001.5 |
| 20260507001520 | 68 | 186 | 2.0 | 6.0 | 0.00 | 0.09 | 0.09 | 80 | 1001.8 |
| 20260507001019 | 69 | 229 | 2.0 | 10.0 | 0.00 | 0.09 | 0.09 | 79 | 1001.6 |
| 20260507000519 | 69 | 191 | 2.0 | 10.0 | 0.00 | 0.09 | 0.09 | 79 | 1001.4 |
| 20260507000019 | 69 | 228 | 2.0 | 8.0 | 0.00 | 0.09 | 0.09 | 79 | 1001.4 |
| 20260506235519 | 69 | 238 | 1.0 | 9.0 | 0.00 | 0.09 | 0.09 | 79 | 1001.5 |
| 20260506235018 | 69 | 214 | 3.0 | 9.0 | 0.00 | 0.09 | 0.09 | 78 | 1001.2 |
| 20260506234519 | 70 | 228 | 4.0 | 8.0 | 0.00 | 0.09 | 0.09 | 78 | 1001.2 |
| 20260506234018 | 70 | 206 | 2.0 | 5.0 | 0.00 | 0.09 | 0.09 | 78 | 1001.1 |
| 20260506233518 | 70 | 143 | 0.0 | 7.0 | 0.00 | 0.09 | 0.09 | 78 | 1000.9 |
| 20260506233017 | 70 | 194 | 2.0 | 9.0 | 0.00 | 0.09 | 0.09 | 78 | 1000.9 |
| 20260506232515 | 70 | 221 | 3.0 | 11.0 | 0.00 | 0.09 | 0.09 | 78 | 1000.9 |
| 20260506232016 | 69 | 207 | 2.0 | 9.0 | 0.00 | 0.09 | 0.09 | 78 | 1000.9 |
| 20260506231516 | 69 | 226 | 3.0 | 10.0 | 0.00 | 0.09 | 0.09 | 78 | 1000.9 |
| 20260506231016 | 70 | 233 | 5.0 | 10.0 | 0.00 | 0.09 | 0.09 | 78 | 1001.0 |
| 20260506230514 | 70 | 223 | 4.0 | 11.0 | 0.00 | 0.09 | 0.09 | 78 | 1001.0 |
| 20260506230015 | 70 | 200 | 5.0 | 12.0 | 0.00 | 0.09 | 0.09 | 78 | 1000.9 |
| 20260506225516 | 70 | 225 | 4.0 | 12.0 | 0.00 | 0.09 | 0.09 | 77 | 1001.0 |
| 20260506225017 | 70 | 231 | 4.0 | 12.0 | 0.00 | 0.09 | 0.09 | 77 | 1001.1 |
| 20260506224515 | 70 | 225 | 5.0 | 9.0 | 0.00 | 0.09 | 0.09 | 77 | 1001.1 |
| 20260506224014 | 70 | 243 | 4.0 | 12.0 | 0.00 | 0.09 | 0.09 | 77 | 1000.9 |
| 20260506223517 | 70 | 200 | 7.0 | 15.0 | 0.00 | 0.09 | 0.09 | 76 | 1001.1 |
| 20260506223017 | 70 | 154 | 5.0 | 15.0 | 0.00 | 0.09 | 0.09 | 76 | 1001.2 |
| 20260506222514 | 71 | 172 | 4.0 | 14.0 | 0.00 | 0.09 | 0.09 | 76 | 1001.1 |
| 20260506222013 | 71 | 240 | 5.0 | 12.0 | 0.00 | 0.09 | 0.09 | 75 | 1001.2 |
| 20260506221515 | 71 | 212 | 5.0 | 11.0 | 0.00 | 0.09 | 0.09 | 75 | 1000.9 |
| 20260506221013 | 71 | 298 | 5.0 | 12.0 | 0.00 | 0.09 | 0.09 | 75 | 1000.8 |
| 20260506220514 | 71 | 157 | 5.0 | 12.0 | 0.00 | 0.09 | 0.09 | 75 | 1000.8 |
| 20260506220028 | 71 | 224 | 4.0 | 14.0 | 0.00 | 0.09 | 0.09 | 75 | 1001.0 |
| 20260506215514 | 71 | 273 | 6.0 | 14.0 | 0.00 | 0.09 | 0.09 | 75 | 1000.8 |
| 20260506215012 | 71 | 220 | 4.0 | 9.0 | 0.00 | 0.09 | 0.09 | 75 | 1000.8 |
| 20260506214512 | 71 | 229 | 3.0 | 14.0 | 0.00 | 0.09 | 0.09 | 75 | 1000.8 |
| 20260506214012 | 71 | 248 | 8.0 | 15.0 | 0.00 | 0.09 | 0.09 | 75 | 1000.9 |
| 20260506213511 | 71 | 229 | 8.0 | 15.0 | 0.00 | 0.09 | 0.09 | 75 | 1000.9 |
| 20260506213011 | 71 | 217 | 6.0 | 14.0 | 0.00 | 0.09 | 0.09 | 75 | 1000.9 |
| 20260506212514 | 71 | 188 | 6.0 | 17.0 | 0.00 | 0.09 | 0.09 | 75 | 1000.8 |
| 20260506212011 | 71 | 233 | 6.0 | 17.0 | 0.00 | 0.09 | 0.09 | 75 | 1000.7 |
| 20260506211510 | 71 | 214 | 7.0 | 15.0 | 0.00 | 0.09 | 0.09 | 75 | 1000.9 |
| 20260506211011 | 70 | 217 | 5.0 | 15.0 | 0.00 | 0.09 | 0.09 | 76 | 1000.9 |
| 20260506210509 | 70 | 219 | 6.0 | 13.0 | 0.00 | 0.09 | 0.09 | 76 | 1000.9 |
| 20260506210013 | 70 | 216 | 6.0 | 14.0 | 0.00 | 0.09 | 0.09 | 76 | 1000.9 |
| 20260506205510 | 70 | 223 | 7.0 | 14.0 | 0.00 | 0.09 | 0.09 | 76 | 1001.0 |
| 20260506205009 | 70 | 226 | 6.0 | 14.0 | 0.00 | 0.09 | 0.09 | 76 | 1000.8 |
| 20260506204509 | 70 | 219 | 8.0 | 17.0 | 0.00 | 0.09 | 0.09 | 76 | 1000.9 |
| 20260506204012 | 69 | 207 | 7.0 | 17.0 | 0.00 | 0.09 | 0.09 | 76 | 1001.1 |
| 20260506203509 | 69 | 245 | 5.0 | 14.0 | 0.00 | 0.09 | 0.09 | 77 | 1000.9 |
| 20260506203015 | 69 | 283 | 9.0 | 14.0 | 0.00 | 0.09 | 0.09 | 77 | 1001.0 |
| 20260506202508 | 68 | 233 | 5.0 | 14.0 | 0.00 | 0.09 | 0.09 | 77 | 1000.9 |
| 20260506202010 | 68 | 185 | 6.0 | 19.0 | 0.00 | 0.09 | 0.09 | 78 | 1001.1 |
| 20260506201508 | 68 | 259 | 7.0 | 19.0 | 0.00 | 0.09 | 0.09 | 78 | 1001.2 |
| 20260506201007 | 68 | 240 | 9.0 | 18.0 | 0.00 | 0.09 | 0.09 | 78 | 1001.1 |
| 20260506200506 | 68 | 207 | 6.0 | 14.0 | 0.00 | 0.09 | 0.09 | 79 | 1001.0 |
| 20260506200006 | 67 | 160 | 8.0 | 14.0 | 0.00 | 0.09 | 0.09 | 79 | 1001.0 |
| 20260506195505 | 67 | 244 | 6.0 | 14.0 | 0.00 | 0.09 | 0.09 | 79 | 1000.9 |
| 20260506195005 | 67 | 216 | 5.0 | 11.0 | 0.00 | 0.09 | 0.09 | 79 | 1001.0 |
| 20260506194505 | 67 | 233 | 4.0 | 16.0 | 0.00 | 0.09 | 0.09 | 80 | 1001.1 |
| 20260506194005 | 67 | 238 | 3.0 | 16.0 | 0.00 | 0.09 | 0.09 | 80 | 1001.2 |
| 20260506193509 | 67 | 224 | 6.0 | 13.0 | 0.00 | 0.09 | 0.09 | 80 | 1001.3 |
| 20260506193004 | 67 | 198 | 6.0 | 18.0 | 0.00 | 0.09 | 0.09 | 80 | 1001.2 |
| 20260506192503 | 66 | 223 | 8.0 | 18.0 | 0.00 | 0.09 | 0.09 | 80 | 1001.7 |
| 20260506192003 | 66 | 202 | 5.0 | 14.0 | 0.00 | 0.09 | 0.09 | 80 | 1001.5 |
| 20260506191502 | 66 | 230 | 7.0 | 17.0 | 0.00 | 0.09 | 0.09 | 80 | 1001.6 |
| 20260506191002 | 66 | 216 | 7.0 | 14.0 | 0.00 | 0.09 | 0.09 | 80 | 1001.7 |
| 20260506190501 | 66 | 227 | 10.0 | 16.0 | 0.00 | 0.09 | 0.09 | 80 | 1001.9 |
| 20260506190002 | 66 | 251 | 8.0 | 13.0 | 0.00 | 0.09 | 0.09 | 80 | 1001.7 |
| 20260506185501 | 66 | 250 | 7.0 | 16.0 | 0.00 | 0.09 | 0.09 | 80 | 1001.8 |
| 20260506185002 | 66 | 226 | 7.0 | 15.0 | 0.00 | 0.09 | 0.09 | 81 | 1002.0 |
| 20260506184501 | 66 | 229 | 8.0 | 15.0 | 0.00 | 0.09 | 0.09 | 81 | 1002.0 |
| 20260506184100 | 66 | 246 | 9.0 | 15.0 | 0.00 | 0.09 | 0.09 | 81 | 1002.0 |
| 20260506183601 | 66 | 243 | 8.0 | 15.0 | 0.00 | 0.09 | 0.09 | 80 | 1001.8 |
| 20260506183120 | 66 | 159 | 7.0 | 14.0 | 0.00 | 0.09 | 0.09 | 80 | 1001.8 |
| 20260506182600 | 66 | 188 | 7.0 | 15.0 | 0.00 | 0.09 | 0.09 | 81 | 1002.1 |
| 20260506182100 | 66 | 229 | 6.0 | 15.0 | 0.00 | 0.09 | 0.09 | 81 | 1002.1 |
| 20260506181603 | 66 | 233 | 6.0 | 14.0 | 0.00 | 0.09 | 0.09 | 81 | 1002.2 |
| 20260506181059 | 66 | 214 | 6.0 | 19.0 | 0.00 | 0.09 | 0.09 | 81 | 1002.0 |
| 20260506180600 | 65 | 221 | 9.0 | 19.0 | 0.00 | 0.09 | 0.09 | 81 | 1001.9 |
| 20260506180115 | 66 | 213 | 7.0 | 14.0 | 0.00 | 0.09 | 0.09 | 80 | 1001.9 |
| 20260506175600 | 66 | 191 | 3.0 | 12.0 | 0.00 | 0.09 | 0.09 | 81 | 1002.4 |
| 20260506175103 | 66 | 217 | 5.0 | 16.0 | 0.00 | 0.09 | 0.09 | 81 | 1002.1 |
| 20260506174557 | 65 | 240 | 8.0 | 16.0 | 0.00 | 0.09 | 0.09 | 81 | 1002.1 |
| 20260506174058 | 65 | 200 | 7.0 | 16.0 | 0.00 | 0.09 | 0.09 | 82 | 1002.3 |
| 20260506173557 | 65 | 236 | 8.0 | 16.0 | 0.00 | 0.09 | 0.09 | 82 | 1002.1 |
| 20260506173134 | 65 | 203 | 5.0 | 15.0 | 0.00 | 0.09 | 0.09 | 83 | 1002.3 |
| 20260506172557 | 65 | 232 | 7.0 | 15.0 | 0.00 | 0.09 | 0.09 | 83 | 1002.3 |
| 20260506172057 | 65 | 179 | 5.0 | 11.0 | 0.00 | 0.09 | 0.09 | 83 | 1002.2 |
| 20260506171557 | 65 | 244 | 4.0 | 12.0 | 0.00 | 0.09 | 0.09 | 83 | 1002.2 |
| 20260506171056 | 65 | 162 | 6.0 | 12.0 | 0.00 | 0.09 | 0.09 | 83 | 1002.1 |
| 20260506170555 | 65 | 197 | 4.0 | 17.0 | 0.00 | 0.09 | 0.09 | 83 | 1002.1 |
| 20260506170054 | 64 | 227 | 8.0 | 17.0 | 0.00 | 0.09 | 0.09 | 83 | 1002.1 |
| 20260506165554 | 64 | 188 | 5.0 | 11.0 | 0.00 | 0.09 | 0.09 | 84 | 1002.3 |
| 20260506165055 | 64 | 243 | 6.0 | 16.0 | 0.00 | 0.09 | 0.09 | 83 | 1002.3 |
| 20260506164553 | 64 | 244 | 7.0 | 14.0 | 0.00 | 0.09 | 0.09 | 84 | 1002.4 |
| 20260506164053 | 64 | 219 | 7.0 | 15.0 | 0.00 | 0.09 | 0.09 | 84 | 1002.5 |
| 20260506163553 | 64 | 227 | 6.0 | 15.0 | 0.00 | 0.09 | 0.09 | 85 | 1002.4 |
| 20260506163058 | 64 | 209 | 6.0 | 13.0 | 0.00 | 0.09 | 0.09 | 85 | 1002.5 |
| 20260506162555 | 63 | 197 | 5.0 | 13.0 | 0.00 | 0.09 | 0.09 | 85 | 1002.5 |
| 20260506162053 | 63 | 255 | 5.0 | 11.0 | 0.00 | 0.09 | 0.09 | 86 | 1003.3 |
| 20260506161556 | 63 | 238 | 6.0 | 11.0 | 0.00 | 0.09 | 0.09 | 86 | 1002.8 |
| 20260506161052 | 63 | 202 | 4.0 | 10.0 | 0.00 | 0.09 | 0.09 | 87 | 1003.0 |
| 20260506160552 | 62 | 205 | 5.0 | 12.0 | 0.00 | 0.09 | 0.09 | 87 | 1002.6 |
| 20260506160051 | 62 | 179 | 7.0 | 13.0 | 0.01 | 0.09 | 0.09 | 88 | 1002.7 |
| 20260506155554 | 62 | 204 | 6.0 | 13.0 | 0.01 | 0.09 | 0.09 | 88 | 1002.7 |
| 20260506155050 | 62 | 186 | 6.0 | 13.0 | 0.02 | 0.09 | 0.09 | 88 | 1002.7 |
| 20260506154551 | 62 | 203 | 5.0 | 13.0 | 0.02 | 0.09 | 0.09 | 89 | 1002.7 |
| 20260506154050 | 62 | 208 | 4.0 | 11.0 | 0.02 | 0.09 | 0.09 | 89 | 1002.9 |
| 20260506153554 | 61 | 209 | 6.0 | 11.0 | 0.02 | 0.09 | 0.09 | 88 | 1002.8 |
| 20260506153049 | 61 | 245 | 4.0 | 13.0 | 0.02 | 0.09 | 0.09 | 89 | 1002.8 |
| 20260506152548 | 61 | 197 | 6.0 | 13.0 | 0.04 | 0.09 | 0.09 | 89 | 1002.6 |
| 20260506152048 | 61 | 214 | 6.0 | 10.0 | 0.06 | 0.09 | 0.09 | 89 | 1002.6 |
| 20260506151548 | 61 | 205 | 4.0 | 11.0 | 0.06 | 0.09 | 0.09 | 89 | 1002.5 |
| 20260506151046 | 61 | 195 | 6.0 | 11.0 | 0.06 | 0.09 | 0.09 | 89 | 1002.5 |
| 20260506150548 | 61 | 102 | 5.0 | 14.0 | 0.05 | 0.08 | 0.08 | 88 | 1002.8 |
| 20260506150045 | 61 | 228 | 4.0 | 14.0 | 0.05 | 0.08 | 0.08 | 88 | 1003.0 |
| 20260506145544 | 61 | 217 | 4.0 | 12.0 | 0.06 | 0.08 | 0.08 | 88 | 1003.1 |
| 20260506145043 | 61 | 213 | 6.0 | 12.0 | 0.05 | 0.07 | 0.07 | 88 | 1003.2 |
| 20260506144559 | 61 | 207 | 5.0 | 10.0 | 0.05 | 0.07 | 0.07 | 88 | 1003.5 |
| 20260506144043 | 61 | 214 | 4.0 | 10.0 | 0.05 | 0.07 | 0.07 | 87 | 1003.4 |
| 20260506143541 | 61 | 212 | 4.0 | 10.0 | 0.05 | 0.07 | 0.07 | 86 | 1003.5 |
| 20260506143041 | 62 | 214 | 5.0 | 10.0 | 0.04 | 0.06 | 0.06 | 86 | 1003.5 |
| 20260506142541 | 62 | 218 | 3.0 | 9.0 | 0.03 | 0.05 | 0.05 | 86 | 1003.5 |
| 20260506142040 | 62 | 225 | 4.0 | 9.0 | 0.02 | 0.03 | 0.03 | 86 | 1003.4 |
| 20260506141540 | 62 | 221 | 2.0 | 9.0 | 0.02 | 0.03 | 0.03 | 86 | 1003.4 |
| 20260506141040 | 62 | 231 | 2.0 | 9.0 | 0.03 | 0.03 | 0.03 | 86 | 1003.3 |
| 20260506140539 | 61 | 211 | 3.0 | 9.0 | 0.03 | 0.03 | 0.03 | 86 | 1003.2 |
| 20260506140039 | 61 | 226 | 3.0 | 7.0 | 0.03 | 0.03 | 0.03 | 85 | 1003.0 |
| 20260506135538 | 62 | 227 | 2.0 | 10.0 | 0.02 | 0.02 | 0.02 | 85 | 1003.0 |
| 20260506135037 | 62 | 178 | 3.0 | 8.0 | 0.02 | 0.02 | 0.02 | 84 | 1002.9 |
| 20260506134538 | 62 | 213 | 1.0 | 7.0 | 0.02 | 0.02 | 0.02 | 84 | 1003.0 |
| 20260506134037 | 62 | 179 | 3.0 | 7.0 | 0.02 | 0.02 | 0.02 | 84 | 1003.0 |
| 20260506133538 | 62 | 150 | 2.0 | 10.0 | 0.02 | 0.02 | 0.02 | 83 | 1003.0 |
| 20260506133041 | 62 | 228 | 3.0 | 10.0 | 0.02 | 0.02 | 0.02 | 83 | 1003.0 |
| 20260506132535 | 62 | 231 | 2.0 | 11.0 | 0.02 | 0.02 | 0.02 | 82 | 1003.2 |
| 20260506132034 | 63 | 231 | 5.0 | 11.0 | 0.01 | 0.01 | 0.01 | 81 | 1003.2 |
| 20260506131533 | 63 | 162 | 4.0 | 10.0 | 0.01 | 0.01 | 0.01 | 80 | 1003.2 |
| 20260506131033 | 63 | 229 | 4.0 | 10.0 | 0.00 | 0.00 | 0.00 | 80 | 1003.3 |
| 20260506130533 | 63 | 229 | 3.0 | 8.0 | 0.00 | 0.00 | 0.00 | 80 | 1003.3 |
| 20260506130036 | 63 | 252 | 3.0 | 8.0 | 0.00 | 0.00 | 0.00 | 80 | 1003.2 |
| 20260506125531 | 63 | 212 | 3.0 | 11.0 | 0.00 | 0.00 | 0.00 | 79 | 1003.1 |
| 20260506125029 | 63 | 226 | 4.0 | 11.0 | 0.00 | 0.00 | 0.00 | 78 | 1003.1 |
| 20260506124529 | 63 | 252 | 3.0 | 8.0 | 0.00 | 0.00 | 0.00 | 78 | 1003.1 |
| 20260506124028 | 64 | 210 | 4.0 | 11.0 | 0.00 | 0.00 | 0.00 | 76 | 1003.0 |
| 20260506123527 | 64 | 213 | 4.0 | 11.0 | 0.00 | 0.00 | 0.00 | 75 | 1002.9 |
| 20260506123027 | 64 | 203 | 3.0 | 10.0 | 0.00 | 0.00 | 0.00 | 75 | 1002.9 |
| 20260506122526 | 64 | 179 | 4.0 | 12.0 | 0.00 | 0.00 | 0.00 | 74 | 1002.9 |
| 20260506122025 | 64 | 191 | 6.0 | 11.0 | 0.00 | 0.00 | 0.00 | 74 | 1003.0 |
| 20260506121527 | 64 | 226 | 5.0 | 11.0 | 0.00 | 0.00 | 0.00 | 74 | 1002.9 |
| 20260506121025 | 65 | 224 | 5.0 | 9.0 | 0.00 | 0.00 | 0.00 | 74 | 1003.0 |
| 20260506120523 | 65 | 234 | 4.0 | 10.0 | 0.00 | 0.00 | 0.00 | 74 | 1003.0 |
| 20260506120028 | 65 | 190 | 4.0 | 10.0 | 0.00 | 0.00 | 0.00 | 74 | 1003.1 |
| 20260506115523 | 65 | 168 | 5.0 | 10.0 | 0.00 | 0.00 | 0.00 | 74 | 1003.2 |
| 20260506115020 | 65 | 223 | 3.0 | 8.0 | 0.00 | 0.00 | 0.00 | 74 | 1003.1 |
| 20260506114520 | 65 | 191 | 4.0 | 12.0 | 0.00 | 0.00 | 0.00 | 73 | 1003.3 |
| 20260506114021 | 65 | 214 | 6.0 | 14.0 | 0.00 | 0.00 | 0.00 | 73 | 1003.3 |
| 20260506113520 | 65 | 179 | 5.0 | 14.0 | 0.00 | 0.00 | 0.00 | 74 | 1003.1 |
| 20260506113021 | 65 | 175 | 4.0 | 13.0 | 0.00 | 0.00 | 0.00 | 74 | 1003.2 |
| 20260506112517 | 65 | 143 | 6.0 | 14.0 | 0.00 | 0.00 | 0.00 | 74 | 1003.2 |
| 20260506112017 | 65 | 226 | 4.0 | 10.0 | 0.00 | 0.00 | 0.00 | 74 | 1003.1 |
| 20260506111517 | 65 | 217 | 5.0 | 10.0 | 0.00 | 0.00 | 0.00 | 74 | 1003.1 |
| 20260506111016 | 65 | 228 | 4.0 | 10.0 | 0.00 | 0.00 | 0.00 | 74 | 1003.0 |
| 20260506110515 | 65 | 225 | 5.0 | 15.0 | 0.00 | 0.00 | 0.00 | 74 | 1002.9 |
| 20260506110019 | 65 | 154 | 4.0 | 15.0 | 0.00 | 0.00 | 0.00 | 74 | 1002.9 |
| 20260506105513 | 65 | 205 | 5.0 | 15.0 | 0.00 | 0.00 | 0.00 | 74 | 1002.8 |
| 20260506105017 | 65 | 207 | 4.0 | 15.0 | 0.00 | 0.00 | 0.00 | 74 | 1002.8 |
| 20260506104512 | 65 | 179 | 4.0 | 12.0 | 0.00 | 0.00 | 0.00 | 75 | 1002.9 |
| 20260506104016 | 64 | 203 | 4.0 | 12.0 | 0.00 | 0.00 | 0.00 | 75 | 1002.9 |
| 20260506103511 | 65 | 243 | 5.0 | 10.0 | 0.00 | 0.00 | 0.00 | 74 | 1002.8 |
| 20260506103011 | 65 | 172 | 4.0 | 10.0 | 0.00 | 0.00 | 0.00 | 74 | 1002.9 |
| 20260506102510 | 65 | 176 | 6.0 | 11.0 | 0.00 | 0.00 | 0.00 | 74 | 1002.9 |
| 20260506102010 | 65 | 210 | 5.0 | 11.0 | 0.00 | 0.00 | 0.00 | 74 | 1002.8 |
| 20260506101510 | 65 | 213 | 5.0 | 10.0 | 0.00 | 0.00 | 0.00 | 74 | 1002.9 |
| 20260506101008 | 65 | 226 | 3.0 | 11.0 | 0.00 | 0.00 | 0.00 | 74 | 1002.8 |
| 20260506100511 | 65 | 207 | 6.0 | 11.0 | 0.00 | 0.00 | 0.00 | 74 | 1002.9 |
| 20260506100006 | 65 | 188 | 5.0 | 11.0 | 0.00 | 0.00 | 0.00 | 74 | 1003.0 |
| 20260506095505 | 65 | 186 | 3.0 | 11.0 | 0.00 | 0.00 | 0.00 | 74 | 1002.9 |
| 20260506095005 | 65 | 216 | 4.0 | 13.0 | 0.00 | 0.00 | 0.00 | 74 | 1002.9 |
| 20260506094503 | 65 | 155 | 6.0 | 13.0 | 0.00 | 0.00 | 0.00 | 74 | 1002.7 |
| 20260506094005 | 65 | 229 | 6.0 | 12.0 | 0.00 | 0.00 | 0.00 | 73 | 1002.7 |
| 20260506093503 | 65 | 163 | 4.0 | 10.0 | 0.00 | 0.00 | 0.00 | 73 | 1002.7 |
| 20260506093003 | 65 | 197 | 4.0 | 11.0 | 0.00 | 0.00 | 0.00 | 73 | 1002.7 |
| 20260506092503 | 65 | 189 | 5.0 | 13.0 | 0.00 | 0.00 | 0.00 | 73 | 1002.7 |
| 20260506092002 | 65 | 219 | 4.0 | 11.0 | 0.00 | 0.00 | 0.00 | 73 | 1002.9 |
| 20260506091504 | 65 | 206 | 4.0 | 11.0 | 0.00 | 0.00 | 0.00 | 73 | 1002.9 |
| 20260506091001 | 65 | 233 | 5.0 | 11.0 | 0.00 | 0.00 | 0.00 | 73 | 1002.9 |
| 20260506090600 | 65 | 231 | 4.0 | 11.0 | 0.00 | 0.00 | 0.00 | 73 | 1003.0 |
| 20260506085558 | 65 | 210 | 5.0 | 13.0 | 0.00 | 0.00 | 0.00 | 72 | 1003.0 |
| 20260506085059 | 65 | 229 | 6.0 | 13.0 | 0.00 | 0.00 | 0.00 | 72 | 1003.2 |
| 20260506084559 | 65 | 182 | 6.0 | 12.0 | 0.00 | 0.00 | 0.00 | 72 | 1003.1 |
| 20260506084057 | 65 | 179 | 4.0 | 12.0 | 0.00 | 0.00 | 0.00 | 72 | 1003.1 |
| 20260506083556 | 65 | 228 | 6.0 | 12.0 | 0.00 | 0.00 | 0.00 | 72 | 1003.2 |
| 20260506083100 | 65 | 217 | 4.0 | 15.0 | 0.00 | 0.00 | 0.00 | 72 | 1003.2 |
| 20260506082554 | 65 | 211 | 5.0 | 15.0 | 0.00 | 0.00 | 0.00 | 71 | 1003.2 |
| 20260506082054 | 66 | 189 | 5.0 | 15.0 | 0.00 | 0.00 | 0.00 | 71 | 1003.3 |
| 20260506081553 | 66 | 237 | 6.0 | 15.0 | 0.00 | 0.00 | 0.00 | 71 | 1003.3 |
| 20260506081052 | 66 | 189 | 5.0 | 13.0 | 0.00 | 0.00 | 0.00 | 71 | 1003.3 |
| 20260506080552 | 66 | 203 | 4.0 | 13.0 | 0.00 | 0.00 | 0.00 | 71 | 1003.4 |
| 20260506080105 | 66 | 213 | 4.0 | 10.0 | 0.00 | 0.00 | 0.00 | 71 | 1003.2 |
| 20260506073057 | 67 | 226 | 5.0 | 14.0 | 0.00 | 0.00 | 0.00 | 70 | 1003.1 |
| 20260506072546 | 67 | 219 | 5.0 | 14.0 | 0.00 | 0.00 | 0.00 | 69 | 1003.1 |
| 20260506072045 | 67 | 197 | 6.0 | 14.0 | 0.00 | 0.00 | 0.00 | 69 | 1003.2 |
| 20260506071543 | 67 | 186 | 5.0 | 12.0 | 0.00 | 0.00 | 0.00 | 69 | 1003.2 |
| 20260506071047 | 67 | 202 | 3.0 | 12.0 | 0.00 | 0.00 | 0.00 | 69 | 1003.4 |
| 20260506070541 | 67 | 217 | 4.0 | 12.0 | 0.00 | 0.00 | 0.00 | 69 | 1003.4 |
| 20260506062035 | 68 | 167 | 6.0 | 16.0 | 0.00 | 0.00 | 0.00 | 67 | 1003.5 |
| 20260506061534 | 68 | 212 | 6.0 | 16.0 | 0.00 | 0.00 | 0.00 | 67 | 1003.5 |
| 20260506061033 | 68 | 223 | 8.0 | 16.0 | 0.00 | 0.00 | 0.00 | 66 | 1003.5 |
| 20260506060531 | 68 | 223 | 6.0 | 15.0 | 0.00 | 0.00 | 0.00 | 66 | 1003.4 |